Home > Weather > Nouadhibou > Past weeks

Flag for Mauritania Weather for the Past 2 Weeks in Nouadhibou, Mauritania

Now
64 °F

Clear.


Feels Like: 64 °F
Forecast: 63 / 77 °F
Wind: 14 mph from North

Location: Nouadhibou Airport

Current Time: May 5, 2016 at 9:14:31 AM

Latest Report: May 5, 2016 at 8:00 AM


Visibility: 5 mi

Pressure: 30.01 "Hg

Humidity: 78%

Dew Point: 57 °F

Location of NouadhibouLocation

Historic Weather in Nouadhibou — Graph

°F

Nouadhibou Temperature Yesterday

Maximum temperature yesterday: 72 °F (at 12:00 PM)
Minimum temperature yesterday: 64 °F (at 12:00 AM)
Average temperature yesterday: 67 °F

High & Low Weather Summary for the Past Weeks

 TemperatureHumidityPressure
High84 °F (Apr 20, 2:00 PM)94% (Apr 28, 1:00 AM)30.04 "Hg (Apr 28, 1:00 AM)
Low63 °F (Apr 25, 1:00 AM)29% (Apr 22, 11:00 AM)29.83 "Hg (Apr 23, 5:00 PM)
Average68 °F73%29.93 "Hg
* Reported Apr 20 8:00 AM — May 5 8:00 AM, Nouadhibou, Weather by CustomWeather, © 2016

Note: Actual official high and low records may vary slightly from our data, if they occured in-between our weather recording intervals... More about our weather records

Advertising

Nouadhibou Weather History for the Previous 24 Hours

Scroll right to see more
 ConditionsComfort  
Time TempWeatherWind HumidityBarometerVisibility
8:00 AM
Thu, May 5
64 °FClear.14 mph78%30.01 "Hg5 mi
7:00 AM63 °FClear.14 mph83%30.01 "Hg5 mi
6:00 AM63 °FClear.13 mph88%29.98 "Hg5 mi
5:00 AM63 °FClear.15 mph88%29.98 "Hg5 mi
4:00 AM64 °FClear.14 mph78%29.98 "Hg5 mi
3:00 AM63 °FClear.14 mph88%29.98 "Hg5 mi
2:00 AM64 °FClear.15 mph83%29.98 "Hg5 mi
1:00 AM64 °FClear.14 mph83%30.01 "Hg5 mi
12:00 AM64 °FClear.13 mph83%30.01 "Hg5 mi
11:00 PM
Wed, May 4
66 °FClear.14 mph78%30.01 "Hg5 mi
10:00 PM66 °FClear.14 mph78%30.01 "Hg5 mi
9:00 PM66 °FClear.16 mph78%29.98 "Hg5 mi
8:00 PM66 °FPassing clouds.18 mph78%29.98 "Hg5 mi
7:00 PM68 °FPassing clouds.18 mph73%29.98 "Hg5 mi
6:00 PM70 °FPassing clouds.21 mph69%29.95 "Hg5 mi
5:00 PM70 °FScattered clouds.18 mph69%29.95 "Hg5 mi
4:00 PM70 °FScattered clouds.18 mph73%29.98 "Hg5 mi
3:00 PM72 °FScattered clouds.18 mph65%30.01 "Hg5 mi
2:00 PM72 °FScattered clouds.17 mph65%30.01 "Hg5 mi
1:00 PM72 °FPassing clouds.16 mph61%30.01 "Hg5 mi
12:00 PM72 °FPassing clouds.18 mph65%30.01 "Hg5 mi
11:00 AM70 °FPassing clouds.14 mph73%30.01 "Hg5 mi
10:00 AM68 °FScattered clouds.16 mph78%30.01 "Hg5 mi
9:00 AM66 °FPassing clouds.15 mph83%29.98 "Hg5 mi
Weather by CustomWeather, © 2016

See weather overviewHow to use our weather pages